Weather Roundup
Issued by NWS

Home | Current Version | Previous Version | Graphics & Text | Print | Product List | Glossary Off
Versions: 1 2 3 4 5 6 7 8 9 10 11 12 13 14 15 16 17 18 19 20 21 22 23 24 25 26 27 28 29 30 31 32 33 34 35 36 37 38 39 40 41 42 43 44 45 46 47 48 49 50

000
NZUS93 KARX 311059
HRRWXR

CURRENT HOURLY OBSERVATIONS ACROSS
MUCH OF THE UPPER MISSISSIPPI VALLEY
NATIONAL WEATHER SERVICE LA CROSSE WI
600 AM CDT THU JUL 31 2014


...SOUTHEAST MINNESOTA...


CITY           SKY/WX    TMP DP  RH WIND       PRES   REMARKS
ROCHESTER      CLEAR     57  54  89 W8        30.07R
ROCHESTER/MAYO FAIR      60  54  79 W5        30.05S
WINONA         CLEAR     59  55  88 CALM      30.03R
AUSTIN         CLEAR     57  55  94 W3        30.06S
ALBERT LEA     PTCLDY    61  55  82 CALM      30.07S
DODGE CENTER   PTCLDY    55  54  94 W7        30.06S
PRESTON        CLEAR     58  57  97 W8        30.06S
OWATONNA       CLEAR     55  54  94 CALM      30.07R
FARIBAULT      CLEAR     57  52  82 CALM      30.06S
$$

...ELSEWHERE IN MINNESOTA...


CITY           SKY/WX    TMP DP  RH WIND       PRES   REMARKS
MINNEAPOLIS    PTCLDY    63  59  87 SW3       30.04R
INTNL FALLS    CLEAR     48  46  93 CALM      29.99S FOG
DULUTH         PTCLDY    57  54  89 NW3       29.99S
RED WING       CLEAR     55  55 100 CALM      30.02S
REDWOOD FALLS  CLEAR     56  54  93 CALM      30.06R
MANKATO        CLEAR     57  52  82 W5        30.06S
WORTHINGTON    PTCLDY    55  50  82 W5        30.11R
FAIRMONT       MOCLDY    57  50  77 CALM      30.08S
$$

...SOUTHWEST WISCONSIN...


CITY           SKY/WX    TMP DP  RH WIND       PRES   REMARKS
LA CROSSE      CLEAR     62  59  90 S3        30.02R
PRAIRIE DU CHI CLEAR     57  55  91 CALM      30.04R
BOSCOBEL       PTCLDY    58  56  93 CALM      30.03S FOG
LONE ROCK      FOG       57  54  88 CALM      30.03S VSB 1/4
PLATTEVILLE    CLEAR     57  56  97 SW6       30.05S
FORT MC COY    CLEAR     52  51  97 CALM      30.02S
CAMP DOUGLAS   CLEAR     54  54 100 W6        30.01S FOG
VIROQUA        FAIR      58  58 100 SW5       30.04S
WIS DELLS      CLEAR     58  56  91 SW3       30.02R
$$

...ELSEWHERE IN WISCONSIN...


CITY           SKY/WX    TMP DP  RH WIND       PRES   REMARKS
MILWAUKEE      CLOUDY    63  54  72 W6        30.00R
MADISON        CLEAR     63  57  81 CALM      30.01S
GREEN BAY      CLEAR     54  54 100 CALM      29.97R
EAU CLAIRE     NOT AVBL
BLACK RVR FLS  FOG       52  52 100 CALM      30.01R VSB 3/4
MEDFORD        CLEAR     55  55  98 W3        30.01R FOG
WAUSAU         CLEAR     57  56  96 CALM      29.98S FOG
WIS RAPIDS     FOG       55  55 100 CALM      30.01S VSB 1/4
MARSHFIELD     CLEAR     58  57  97 NW7       30.00S FOG
RICE LAKE        N/A     55  54  95 CALM      30.03S FOG
$$

...NORTHEAST IOWA...


CITY           SKY/WX    TMP DP  RH WIND       PRES   REMARKS
WATERLOO       CLEAR     56  55  97 CALM      30.06S
DUBUQUE        CLEAR     56  55  97 SW3       30.06R
DECORAH        PTCLDY    59  55  88 W3        30.05R
MASON CITY     CLEAR     54  53  97 W5        30.09S
CHARLES CITY   CLEAR     55  55 100 W3        30.08R
OELWEIN        CLEAR     57  55  94 NW6       30.07S
$$

...ELSEWHERE IN IOWA...


CITY           SKY/WX    TMP DP  RH WIND       PRES   REMARKS
DES MOINES     PTCLDY    60  55  83 CALM      30.09R
IOWA CITY      CLEAR     59  57  93 W5        30.08R
FORT DODGE     CLEAR     52  48  87 CALM      30.10R
MARSHALLTOWN   CLEAR     57  56  96 NW3       30.08R FOG
CEDAR RAPIDS   CLEAR     58  56  93 W3        30.06S
$$

...NORTHERN ILLINOIS...


CITY           SKY/WX    TMP DP  RH WIND       PRES   REMARKS
CHICAGO-OHARE  PTCLDY    62  56  80 W6        30.02S
DUPAGE         CLEAR     59  56  89 CALM      30.03S FOG
CHICAGO-MIDWAY PTCLDY    63  59  87 SW3       30.03R
MOLINE         CLEAR     59  56  89 CALM      30.05S
ROCKFORD       PTCLDY    57  53  86 S6        30.06R
STERLING       CLEAR     54  52  94 CALM      30.05S
PEORIA         CLEAR     61  56  83 CALM      30.07S
$$

NOTE: "FAIR" INDICATES FEW OR NO CLOUDS BELOW 12,000 FEET WITH NO
SIGNIFICANT WEATHER AND/OR OBSTRUCTIONS TO VISIBILITY. WIND
SPEEDS ARE IN MILES-PER-HOUR.



USA.gov is the U.S. government's official web portal to all federal, state and local government web resources and services.